Location: Lake Mineral Wells State Park
(32.8157°N, 98.0290°W)
Time: 12:12:54
(UTC-06:00)

Envisat - Pass Details

Date: 25 October 2019
Orbit: 764 x 766 km, 98.1° (Epoch: 21 November)

Event Time Altitude Azimuth Distance (km) Brightness Sun altitude
Rises 21:01:36 0° 213° (SSW) 3,218 6.6 -28.7°
Reaches altitude 10° 21:05:15 10° 241° (WSW) 2,297 6.1 -29.4°
Maximum altitude 21:07:31 13° 268° (W) 2,099 6.1 -29.9°
Drops below altitude 10° 21:09:48 10° 295° (WNW) 2,303 6.3 -30.4°
Sets 21:13:29 0° 322° (NW) 3,234 6.8 -31.2°
